SAS26R EKCH-ESGG

Flight info

Callsign SAS26R
Flight time 0h 31m
Altitude 16000
Route VEDAR L997 RISMA
Aircraft A21N/M-SDE2E3FGHIRWXY/LB1

Departure

Time 2026-05-04 20:02
Airport Copenhagen Kastrup Airport (EKCH)

Arrival

Time 2026-05-04 20:33
Airport Göteborg Landvetter Airport (ESGG)
Time Latitude Longitude Altitude Speed Heading
2026-05-04 19:34 55.62571 12.65041 20 ft 0 kts 269°
2026-05-04 19:35 55.62643 12.65043 21 ft 0 kts 279°
2026-05-04 19:48 55.62643 12.65048 21 ft 2 kts 279°
2026-05-04 19:48 55.62640 12.65074 20 ft 2 kts 279°
2026-05-04 19:48 55.62638 12.65100 20 ft 2 kts 279°
2026-05-04 19:49 55.62636 12.65126 19 ft 2 kts 278°
2026-05-04 19:49 55.62633 12.65152 19 ft 2 kts 279°
2026-05-04 19:49 55.62632 12.65177 19 ft 1 kts 278°
2026-05-04 19:49 55.62631 12.65189 18 ft 1 kts 248°
2026-05-04 19:50 55.62636 12.65200 18 ft 1 kts 190°
2026-05-04 19:50 55.62642 12.65200 18 ft 0 kts 176°
2026-05-04 19:50 55.62645 12.65199 18 ft 0 kts 179°
2026-05-04 19:50 55.62645 12.65200 18 ft 0 kts 179°
2026-05-04 19:52 55.62644 12.65199 18 ft 0 kts 180°
2026-05-04 19:52 55.62626 12.65199 18 ft 4 kts 182°
2026-05-04 19:53 55.62577 12.65196 18 ft 9 kts 182°
2026-05-04 19:53 55.62501 12.65194 18 ft 13 kts 179°
2026-05-04 19:53 55.62398 12.65202 18 ft 16 kts 178°
2026-05-04 19:53 55.62288 12.65171 18 ft 16 kts 232°
2026-05-04 19:54 55.62313 12.64978 18 ft 18 kts 302°
2026-05-04 19:54 55.62349 12.64875 16 ft 10 kts 300°
2026-05-04 19:54 55.62331 12.64730 15 ft 14 kts 247°
2026-05-04 19:54 55.62294 12.64585 15 ft 0 kts 245°
2026-05-04 19:55 55.62293 12.64580 15 ft 1 kts 245°
2026-05-04 19:55 55.62286 12.64554 15 ft 3 kts 246°
2026-05-04 19:55 55.62262 12.64458 15 ft 14 kts 246°
2026-05-04 19:56 55.62195 12.64340 15 ft 15 kts 202°
2026-05-04 19:56 55.62069 12.64235 16 ft 17 kts 204°
2026-05-04 19:56 55.62028 12.64202 17 ft 0 kts 206°
2026-05-04 19:57 55.62026 12.64201 17 ft 1 kts 206°
2026-05-04 19:58 55.62007 12.64184 18 ft 4 kts 206°
2026-05-04 19:58 55.61965 12.64147 18 ft 9 kts 207°
2026-05-04 19:58 55.61883 12.64077 19 ft 15 kts 206°
2026-05-04 19:58 55.61791 12.63954 22 ft 18 kts 210°
2026-05-04 19:59 55.61673 12.63945 22 ft 6 kts 176°
2026-05-04 19:59 55.61671 12.63945 22 ft 0 kts 176°
2026-05-04 20:00 55.61669 12.63945 22 ft 1 kts 176°
2026-05-04 20:00 55.61615 12.63952 21 ft 17 kts 176°
2026-05-04 20:00 55.61510 12.63893 21 ft 4 kts 219°
2026-05-04 20:01 55.61510 12.63892 21 ft 0 kts 220°
2026-05-04 20:01 55.61422 12.63760 20 ft 52 kts 222°
2026-05-04 20:01 55.60955 12.63027 18 ft 124 kts 220°
2026-05-04 20:02 55.60166 12.61812 96 ft 171 kts 223°
2026-05-04 20:02 55.59229 12.60387 588 ft 184 kts 224°
2026-05-04 20:02 55.58256 12.58840 1227 ft 195 kts 226°
2026-05-04 20:02 55.57274 12.57223 1956 ft 200 kts 226°
2026-05-04 20:03 55.56305 12.55424 2594 ft 207 kts 243°
2026-05-04 20:03 55.56067 12.52909 3002 ft 223 kts 279°
2026-05-04 20:03 55.56361 12.50127 3579 ft 240 kts 281°
2026-05-04 20:03 55.56636 12.47181 4325 ft 250 kts 279°
2026-05-04 20:04 55.56895 12.44156 5233 ft 253 kts 279°
2026-05-04 20:04 55.57149 12.41087 6143 ft 255 kts 278°
2026-05-04 20:04 55.57400 12.38034 7021 ft 258 kts 278°
2026-05-04 20:04 55.57760 12.34936 7870 ft 261 kts 290°
2026-05-04 20:05 55.58805 12.32335 8667 ft 269 kts 316°
2026-05-04 20:05 55.60445 12.30759 9463 ft 280 kts 340°
2026-05-04 20:05 55.62399 12.30277 10256 ft 286 kts 349°
2026-05-04 20:05 55.64389 12.29927 10764 ft 299 kts 348°
2026-05-04 20:06 55.66526 12.29534 11138 ft 317 kts 348°
2026-05-04 20:06 55.68766 12.29117 11477 ft 334 kts 349°
2026-05-04 20:06 55.71139 12.28674 11796 ft 351 kts 349°
2026-05-04 20:06 55.73596 12.28214 12094 ft 368 kts 349°
2026-05-04 20:07 55.76181 12.27731 12453 ft 381 kts 349°
2026-05-04 20:07 55.78834 12.27322 13049 ft 388 kts 351°
2026-05-04 20:07 55.81557 12.27032 13724 ft 391 kts 352°
2026-05-04 20:07 55.84264 12.26770 14348 ft 395 kts 352°
2026-05-04 20:08 55.87003 12.26505 14957 ft 399 kts 352°
2026-05-04 20:08 55.89756 12.26233 15536 ft 403 kts 352°
2026-05-04 20:08 55.92569 12.25954 15879 ft 405 kts 352°
2026-05-04 20:08 55.95371 12.25676 15941 ft 405 kts 352°
2026-05-04 20:09 55.98185 12.25394 15940 ft 404 kts 352°
2026-05-04 20:09 56.00983 12.25112 15944 ft 403 kts 352°
2026-05-04 20:09 56.03768 12.24829 15944 ft 403 kts 352°
2026-05-04 20:09 56.06554 12.24546 15942 ft 402 kts 352°
2026-05-04 20:10 56.09315 12.24246 15947 ft 402 kts 350°
2026-05-04 20:10 56.12081 12.23731 15941 ft 399 kts 347°
2026-05-04 20:10 56.14844 12.23019 15936 ft 399 kts 346°
2026-05-04 20:10 56.17576 12.22266 15943 ft 399 kts 346°
2026-05-04 20:11 56.20287 12.21511 15940 ft 399 kts 346°
2026-05-04 20:11 56.23037 12.20748 15938 ft 399 kts 346°
2026-05-04 20:11 56.25765 12.19990 15928 ft 399 kts 346°
2026-05-04 20:11 56.28499 12.19234 15930 ft 399 kts 346°
2026-05-04 20:12 56.31233 12.18476 15933 ft 399 kts 346°
2026-05-04 20:12 56.33956 12.17723 15935 ft 399 kts 346°
2026-05-04 20:12 56.36695 12.16965 15932 ft 398 kts 346°
2026-05-04 20:12 56.39443 12.16203 15929 ft 398 kts 346°
2026-05-04 20:13 56.42151 12.15450 15929 ft 398 kts 346°
2026-05-04 20:13 56.44885 12.14690 15933 ft 398 kts 346°
2026-05-04 20:13 56.47602 12.13933 15931 ft 398 kts 346°
2026-05-04 20:13 56.50315 12.13177 15926 ft 397 kts 346°
2026-05-04 20:14 56.53068 12.12408 15922 ft 397 kts 346°
2026-05-04 20:14 56.55770 12.11652 15923 ft 397 kts 346°
2026-05-04 20:14 56.58478 12.10895 15920 ft 397 kts 346°
2026-05-04 20:14 56.61214 12.10127 15919 ft 397 kts 346°
2026-05-04 20:15 56.63909 12.09371 15917 ft 397 kts 346°
2026-05-04 20:15 56.66658 12.08598 15916 ft 397 kts 345°
2026-05-04 20:15 56.69373 12.07835 15918 ft 397 kts 345°
2026-05-04 20:15 56.72107 12.07065 15916 ft 397 kts 345°
2026-05-04 20:16 56.74795 12.06306 15916 ft 396 kts 345°
2026-05-04 20:16 56.77521 12.05536 15914 ft 396 kts 345°
2026-05-04 20:16 56.80217 12.04771 15913 ft 396 kts 345°
2026-05-04 20:16 56.82944 12.03998 15912 ft 396 kts 345°
2026-05-04 20:17 56.85646 12.03229 15913 ft 396 kts 345°
2026-05-04 20:17 56.88355 12.02460 15914 ft 395 kts 345°
2026-05-04 20:17 56.91084 12.01682 15912 ft 396 kts 345°
2026-05-04 20:17 56.93796 12.00910 15911 ft 396 kts 345°
2026-05-04 20:18 56.96490 12.00140 15913 ft 395 kts 345°
2026-05-04 20:18 56.99192 11.99369 15916 ft 395 kts 345°
2026-05-04 20:18 57.01940 11.98613 15918 ft 405 kts 346°
2026-05-04 20:18 57.04748 11.98095 15910 ft 414 kts 350°
2026-05-04 20:19 57.07654 11.97881 15906 ft 422 kts 353°
2026-05-04 20:19 57.10590 11.97837 15906 ft 425 kts 354°
2026-05-04 20:19 57.13542 11.97835 15903 ft 425 kts 354°
2026-05-04 20:19 57.16516 11.98082 15888 ft 426 kts 359°
2026-05-04 20:20 57.19410 11.98660 15680 ft 419 kts
2026-05-04 20:20 57.22290 11.99300 15095 ft 415 kts
2026-05-04 20:20 57.25135 11.99916 14408 ft 413 kts
2026-05-04 20:20 57.27977 12.00503 13767 ft 410 kts
2026-05-04 20:21 57.30786 12.01065 13166 ft 406 kts
2026-05-04 20:21 57.33556 12.01652 12578 ft 404 kts
2026-05-04 20:21 57.38948 12.04191 10989 ft 401 kts 11°
2026-05-04 20:22 57.41595 12.05608 10542 ft 394 kts 11°
2026-05-04 20:22 57.44201 12.06977 10310 ft 394 kts 10°
2026-05-04 20:22 57.46840 12.08332 10097 ft 393 kts 10°
2026-05-04 20:22 57.49456 12.09655 9920 ft 390 kts 10°
2026-05-04 20:23 57.52068 12.10965 9653 ft 390 kts 10°
2026-05-04 20:23 57.54666 12.12263 9177 ft 385 kts 10°
2026-05-04 20:23 57.57219 12.13535 8733 ft 382 kts 10°
2026-05-04 20:23 57.59788 12.14817 8286 ft 380 kts 10°
2026-05-04 20:24 57.62313 12.16080 7834 ft 377 kts 10°
2026-05-04 20:24 57.64833 12.17337 7396 ft 374 kts 10°
2026-05-04 20:24 57.67328 12.18587 6953 ft 364 kts 10°
2026-05-04 20:24 57.69665 12.19771 6533 ft 340 kts 10°
2026-05-04 20:25 57.71878 12.20892 6139 ft 317 kts
2026-05-04 20:25 57.73934 12.21931 5772 ft 298 kts
2026-05-04 20:25 57.75857 12.22900 5432 ft 281 kts
2026-05-04 20:25 57.77726 12.23836 5113 ft 272 kts
2026-05-04 20:26 57.79523 12.24734 4856 ft 266 kts
2026-05-04 20:26 57.81267 12.25610 4611 ft 260 kts
2026-05-04 20:26 57.82994 12.26478 4325 ft 256 kts
2026-05-04 20:26 57.84712 12.27347 4056 ft 252 kts
2026-05-04 20:27 57.86267 12.28795 3796 ft 258 kts 39°
2026-05-04 20:27 57.87154 12.31720 3526 ft 265 kts 76°
2026-05-04 20:27 57.87280 12.35130 3494 ft 265 kts 89°
2026-05-04 20:27 57.87214 12.38597 3348 ft 264 kts 97°
2026-05-04 20:28 57.86552 12.41663 3108 ft 253 kts 136°
2026-05-04 20:28 57.85148 12.43264 2980 ft 229 kts 176°
2026-05-04 20:28 57.83632 12.43063 2920 ft 217 kts 200°
2026-05-04 20:28 57.82151 12.42463 2701 ft 220 kts 194°
2026-05-04 20:29 57.80630 12.42689 2479 ft 224 kts 167°
2026-05-04 20:29 57.79140 12.43446 2521 ft 212 kts 183°
2026-05-04 20:29 57.77917 12.42745 2476 ft 169 kts 229°
2026-05-04 20:29 57.77548 12.40875 2502 ft 154 kts 272°
2026-05-04 20:30 57.77579 12.38924 2474 ft 145 kts 261°
2026-05-04 20:30 57.77000 12.37440 2444 ft 146 kts 220°
2026-05-04 20:30 57.76087 12.36667 2365 ft 143 kts 210°
2026-05-04 20:30 57.75179 12.36011 2167 ft 139 kts 211°
2026-05-04 20:31 57.74308 12.35294 2002 ft 137 kts 212°
2026-05-04 20:31 57.73440 12.34519 1827 ft 138 kts 213°
2026-05-04 20:31 57.72591 12.33736 1626 ft 137 kts 215°
2026-05-04 20:31 57.71732 12.32979 1450 ft 135 kts 209°
2026-05-04 20:32 57.70871 12.32243 1226 ft 137 kts 213°
2026-05-04 20:32 57.70026 12.31428 1046 ft 137 kts 212°
2026-05-04 20:32 57.69179 12.30640 922 ft 137 kts 208°
2026-05-04 20:32 57.68328 12.29871 703 ft 136 kts 210°
2026-05-04 20:33 57.67472 12.29084 573 ft 137 kts 208°
2026-05-04 20:33 57.66648 12.28329 511 ft 120 kts 211°
2026-05-04 20:33 57.66069 12.27780 508 ft 59 kts 203°
2026-05-04 20:33 57.65824 12.27666 507 ft 16 kts 172°
2026-05-04 20:34 57.65745 12.27692 508 ft 11 kts 156°
2026-05-04 20:34 57.65720 12.27727 509 ft 0 kts 116°
2026-05-04 20:35 57.65742 12.27826 511 ft 18 kts 41°
2026-05-04 20:35 57.65858 12.27940 510 ft 19 kts 25°
2026-05-04 20:35 57.65979 12.28046 511 ft 18 kts 24°
2026-05-04 20:35 57.66096 12.28153 511 ft 18 kts 26°
2026-05-04 20:36 57.66183 12.28232 511 ft 9 kts 26°
2026-05-04 20:36 57.66245 12.28290 511 ft 10 kts 26°
2026-05-04 20:36 57.66279 12.28321 511 ft 0 kts 26°
2026-05-04 20:36 57.66283 12.28325 511 ft 1 kts 26°
2026-05-04 20:37 57.66304 12.28343 511 ft 6 kts 26°
2026-05-04 20:37 57.66376 12.28409 512 ft 17 kts 25°
2026-05-04 20:37 57.66522 12.28541 511 ft 28 kts 26°
2026-05-04 20:37 57.66706 12.28709 507 ft 23 kts 25°
2026-05-04 20:38 57.66825 12.28872 508 ft 20 kts 91°
2026-05-04 20:38 57.66792 12.29030 508 ft 11 kts 115°
2026-05-04 20:38 57.66760 12.29151 510 ft 9 kts 116°
2026-05-04 20:38 57.66734 12.29255 512 ft 7 kts 115°
2026-05-04 20:39 57.66730 12.29267 513 ft 0 kts 115°